www.pogodaiklimat.ru
ПОГОДА в Маунтин-Вью
Время
и дата
16:35 20.07
16:55 20.07
17:15 20.07
17:35 20.07
17:55 20.07
18:15 20.07
18:35 20.07
18:55 20.07
19:15 20.07
19:35 20.07
19:55 20.07
20:15 20.07
20:35 20.07
20:55 20.07
21:15 20.07
21:35 20.07
21:55 20.07
22:15 20.07
22:35 20.07
22:55 20.07
23:15 20.07
23:35 20.07
23:55 20.07
00:15 21.07
00:35 21.07
00:55 21.07
01:15 21.07
01:35 21.07
01:55 21.07
02:15 21.07
02:35 21.07
02:55 21.07
03:15 21.07
03:35 21.07
03:55 21.07
04:15 21.07
04:35 21.07
04:55 21.07
05:15 21.07
05:35 21.07
05:55 21.07
06:15 21.07
06:35 21.07
06:55 21.07
07:15 21.07
07:35 21.07
07:55 21.07
08:15 21.07
Ветер
(напр.,м/с)
Видим. Явления Облачность Т
(С)
Тd
(С)
f
(%)
Тe
(С)
Тes
(С)
Комфортность P
(гПа)
Po
(гПа)
Тmin
(С)
Tmax
(С)
R
(мм)
R24
(мм)
S
(см)
С 6 16 км ясно +22.0 +15.0 64 +25 +29 комфорт 1011.9
С 6 16 км ясно +22.0 +15.0 64 +25 +29 комфорт 1011.9
С 6 14 км ясно +22.0 +15.0 64 +25 +27 комфорт 1011.9
С 6 16 км ясно +21.0 +15.0 69 +24 +26 комфорт 1012.2
С 6 16 км ясно +21.0 +15.0 69 +24 +26 комфорт 1012.2
С 6 14 км ясно +21.0 +15.0 69 +24 +25 комфорт 1012.6
С 6 14 км ясно +20.0 +15.0 73 +22 +22 комфорт 1012.6
С 6 14 км ясно +20.0 +14.0 68 +22 +22 комфорт 1012.9
С 6 14 км ясно +20.0 +15.0 73 +22 +22 комфорт 1012.9
С 5 14 км ясно +19.0 +14.0 73 +20 +20 1012.9
С 6 16 км ясно +19.0 +14.0 73 +20 +20 1013.2
С 4 16 км ясно +19.0 +14.0 73 +20 +20 1013.2
С 5 16 км ясно +19.0 +14.0 73 +20 +20 1013.6
С 4 14 км ясно +18.0 +14.0 77 +18 +18 1013.6
С 3 14 км ясно +17.0 +14.0 82 +17 +17 1013.9
СЗ 2 14 км ясно +17.0 +14.0 82 +17 +17 1013.9
С 2 16 км ясно +17.0 +14.0 82 +17 +17 1013.9
штиль 0 14 км ясно +17.0 +14.0 82 +17 +17 1013.9
СВ 2 14 км ясно +17.0 +14.0 82 +17 +17 1013.9
СВ 3 14 км ясно +16.0 +14.0 88 +16 +16 1013.9
СВ 2 14 км ясно +16.0 +14.0 88 +16 +16 1013.9
С 3 14 км ясно +16.0 +14.0 88 +16 +16 1013.9
С 2 14 км н/о +16.0 +14.0 88 +16 +16 1013.9
С 2 14 км ясно +16.0 +13.0 82 +16 +16 1013.6
СВ 2 16 км ясно +16.0 +13.0 82 +16 +16 1013.6
СВ 2 16 км ясно +16.0 +13.0 82 +16 +16 1013.6
СВ 2 16 км ясно +16.0 +13.0 82 +16 +16 1013.6
СВ 2 16 км ясно +15.0 +13.0 88 +15 +15 1013.6
СВ 2 16 км ясно +15.0 +13.0 88 +15 +15 1013.6
СВ 2 16 км ясно +15.0 +13.0 88 +15 +15 1013.6
В 3 16 км ясно +15.0 +13.0 88 +14 +14 1013.6
СВ 2 16 км ясно +15.0 +13.0 88 +15 +15 1013.2
В 2 16 км ясно +15.0 +13.0 88 +15 +15 1013.2
штиль 0 16 км ясно +15.0 +13.0 88 +15 +15 1013.2
штиль 0 16 км ясно +15.0 +13.0 88 +15 +15 1013.2
штиль 0 16 км ясно +15.0 +13.0 88 +15 +15 1013.6
штиль 0 16 км 2/2 390 м +15.0 +13.0 88 +15 +15 1013.6
штиль 0 16 км 2/2 390 м +15.0 +13.0 88 +15 +15 1013.6
штиль 0 16 км 2/2 390 м +15.0 +13.0 88 +15 +15 1013.6
штиль 0 16 км 5/5 390 м +15.0 +13.0 88 +15 +15 1013.9
штиль 0 16 км 8/8 390 м +16.0 +13.0 82 +16 +16 1013.9
ЮВ 2 16 км 2/2 390 м +16.0 +13.0 82 +16 +17 1014.3
ЮВ 2 16 км ясно +17.0 +13.0 77 +17 +18 1014.3
ЮВ 2 16 км ясно +17.0 +14.0 82 +17 +18 1014.3
ЮВ 2 16 км 2/2 450 м +17.0 +13.0 77 +17 +20 1014.3
штиль 0 16 км ясно +18.0 +13.0 73 +18 +22 1014.3
штиль 0 16 км 8/8 570 м +19.0 +13.0 68 +20 +21 1014.3
СВ 2 16 км 10/10 600 м +19.0 +13.0 68 +21 +21 комфорт 1014.3
Местоположение метеостанции Mountain View Moffett Field: широта 37.4058 долгота -122.0481 высота над уровнем моря 10 м.
В архиве по умолчанию представлена погода в Маунтин-Вью за последние 1-2 суток. Обновление информации о фактической погоде в базе происходит ежечасно! Архивные данные за месяц целиком и за предыдущие месяцы Вы можете получить, выбрав интересующий диапазон дат из раскрывающегося списка и нажав кнопку "Ввод!".
Внимание! Архив погоды МЕТАР в базе сайта по станциям, не включенным в климатический монитор, хранится не более 60 дней. Нет смысла пытаться выбрать более раннюю дату.
*Определитесь, кто Вы:
Внимание! Время в таблицах - местное (без учета летнего времени). Для получения всемирного времени необходимо вычесть поправку, которая равна -8 ч.
Смотрите также архив погоды в соседних городах и на ближайших метеорологических станциях:
Партнеры нашего сайта:      
Пояснения к столбцам:
  • Ветер - указаны скорость ветра в м/с - средняя за 10 мин, порывы в срок и между сроками (в фигурных скобках) и направление, откуда дует ветер: С - северный,
  • СВ - северо-восточный, В - восточный, ЮВ - юго-восточный, Ю - южный, ЮЗ - юго-западный, З - западный, СЗ - северо-западный.
  • Видимость - горизонтальная дальность видимости в метрах или километрах. При видимости от 1 до 10 км при отсутствии осадков обычно наблюдается дымка, при ухудшении видимости до 1 км и менее - туман. В сухую погоду видимость может ухудшаться дымом, пылью или мглою.
  • Явления - указаны атмосферные явления, наблюдавшиеся в срок или в последний час перед сроком; фигурными скобками обозначены явления, наблюдавшиеся между сроками (за 1-3 часа до срока); квадратными скобками обозначены град или гололедные отложения с указанием их диаметра в мм.
  • Облачность - указаны через наклонную черту общая и нижняя облачность в баллах и высота нижней границы облаков в метрах; квадратными скобками обозначены формы облаков: Ci - перистые, Cs - перисто-слоистые, Cc - перисто-кучевые, Ac - высококучевые, As - высокослоистые, Sc - слоисто-кучевые, Ns - слоисто-дождевые, Cu - кучевые, Cb - кучево-дождевые. Подробнее классификацию облаков см. в Атласе облаков (PDF).
  • T - Температура воздуха - температура, измеренная на высоте 2 м над землей.
  • Td - Температура точки росы - температура, при понижении до которой содержащийся в воздухе водяной пар достигнет насыщения.
  • f - Относительная влажность воздуха - влажноcть воздуха, измеренная на высоте 2 м над землей.
  • Te - Эффективная температура - температура, которую ощущает одетый по сезону человек в тени. Характеристика душности погоды. При расчете учитывается влияние влажности воздуха и скорости ветра на теплоощущения человека.
  • Tes - Эффективная температура на солнце - температура, которую ощущает человек, с поправкой на солнечный нагрев. Характеристика знойности погоды. Зависит от высоты солнца над горизонтом, облачности и скорости ветра. Ночью, в пасмурную погоду, а также при ветре 12 м/с и более поправка равна нулю.
  • P - Атмосферное давление - приведенное к уровню моря атмосферное давление.
  • Po - Атмосферное давление - измеренное на уровне метеостанции атмосферное давление.
  • Tmin - Минимальная температура - минимум температуры воздуха на высоте 2 м над землей.
  • Tmax - Максимальная температура - максимум температуры воздуха на высоте 2 м над землей.
  • R - Количество осадков - Количество выпавших осадков за период времени, мм. При наведении курсора мыши на число - период времени, за который выпало указанное количество осадков.
  • R24 - Количество осадков - Количество выпавших осадков за 24 часа, мм.
  • S - Снежный покров - Высота снежного покрова, см. При наведении курсора мыши на число - состояние снежного покрова и степень покрытия местности в баллах.